Location: *
(44.3683°N, 6.6958°E)
Time: 00:13:07
(UTC+00:00)

CSL-04 Rocket - Pass Details

Date: 14 October 2019
Orbit: 805 x 861 km, 99.0° (Epoch: 19 November)

Event Time Altitude Azimuth Distance (km) Brightness Sun altitude
Rises 17:24:58 0° 148° (SSE) 3,425 6.6 -6.8°
Reaches altitude 10° 17:27:23 10° 143° (SE) 2,491 5.8 -7.2°
Maximum altitude 17:32:43 51° 69° (ENE) 1,073 3.9 -8.1°
Drops below altitude 10° 17:38:03 10° 355° (N) 2,487 6.2 -9.1°
Sets 17:40:28 0° 351° (N) 3,420 7.0 -9.5°
